| time (UTC) | temp F | wind direction | speed MPH | gust MPH | rain 1hr in | rain 24hr in | rain mn in | humidity % | barometer mb |
| 20260505051004 | 64 | 213 | 4.0 | 12.0 | 0.00 | 0.00 | 0.00 | 66 | 1003.1 |
| 20260505050503 | 64 | 214 | 4.0 | 9.0 | 0.00 | 0.00 | 0.00 | 66 | 1003.1 |
| 20260505041504 | 64 | 204 | 4.0 | 9.0 | 0.00 | 0.00 | 0.00 | 66 | 1003.4 |
| 20260505041005 | 64 | 206 | 4.0 | 10.0 | 0.00 | 0.00 | 0.00 | 66 | 1003.5 |
| 20260505040504 | 64 | 203 | 3.0 | 10.0 | 0.00 | 0.00 | 0.00 | 66 | 1003.4 |
| 20260505035504 | 64 | 214 | 3.0 | 9.0 | 0.00 | 0.00 | 0.00 | 66 | 1003.6 |
| 20260505035005 | 64 | 207 | 3.0 | 7.0 | 0.00 | 0.00 | 0.00 | 66 | 1003.6 |
| 20260505034504 | 64 | 211 | 3.0 | 9.0 | 0.00 | 0.00 | 0.00 | 66 | 1003.7 |
| 20260505034005 | 64 | 219 | 3.0 | 9.0 | 0.00 | 0.00 | 0.00 | 65 | 1003.7 |
| 20260505033504 | 64 | 218 | 4.0 | 8.0 | 0.00 | 0.00 | 0.00 | 65 | 1003.7 |
| 20260505032504 | 64 | 212 | 3.0 | 7.0 | 0.00 | 0.00 | 0.00 | 65 | 1003.7 |
| 20260505032004 | 64 | 217 | 3.0 | 9.0 | 0.00 | 0.00 | 0.00 | 65 | 1003.7 |
| 20260505031503 | 64 | 215 | 3.0 | 9.0 | 0.00 | 0.00 | 0.00 | 65 | 1003.7 |
| 20260505031004 | 64 | 215 | 3.0 | 9.0 | 0.00 | 0.00 | 0.00 | 65 | 1003.7 |
| 20260505030504 | 64 | 210 | 3.0 | 7.0 | 0.00 | 0.00 | 0.00 | 64 | 1003.5 |
| 20260505025504 | 64 | 209 | 3.0 | 13.0 | 0.00 | 0.00 | 0.00 | 64 | 1003.7 |
| 20260505025005 | 64 | 213 | 2.0 | 13.0 | 0.00 | 0.00 | 0.00 | 64 | 1003.8 |
| 20260505024504 | 64 | 208 | 1.0 | 4.0 | 0.00 | 0.00 | 0.00 | 64 | 1003.7 |
| 20260505023004 | 65 | 210 | 3.0 | 8.0 | 0.00 | 0.00 | 0.00 | 63 | 1003.7 |
| 20260505022004 | 65 | 208 | 2.0 | 5.0 | 0.00 | 0.00 | 0.00 | 62 | 1003.8 |
| 20260505021004 | 65 | 216 | 2.0 | 6.0 | 0.00 | 0.00 | 0.00 | 62 | 1004.0 |
| 20260505020004 | 66 | 217 | 3.0 | 5.0 | 0.00 | 0.00 | 0.00 | 61 | 1003.9 |
| 20260505015504 | 66 | 219 | 3.0 | 7.0 | 0.00 | 0.00 | 0.00 | 60 | 1003.9 |
| 20260505014504 | 66 | 224 | 4.0 | 12.0 | 0.00 | 0.00 | 0.00 | 59 | 1003.8 |
| 20260505014004 | 66 | 222 | 4.0 | 12.0 | 0.00 | 0.00 | 0.00 | 59 | 1003.8 |
| 20260505013504 | 66 | 212 | 4.0 | 9.0 | 0.00 | 0.00 | 0.00 | 59 | 1003.7 |
| 20260505013005 | 66 | 220 | 3.0 | 8.0 | 0.00 | 0.00 | 0.00 | 58 | 1003.7 |
| 20260505012504 | 67 | 228 | 4.0 | 10.0 | 0.00 | 0.00 | 0.00 | 58 | 1003.8 |
| 20260505012005 | 67 | 224 | 4.0 | 10.0 | 0.00 | 0.00 | 0.00 | 57 | 1003.7 |
| 20260505011504 | 67 | 220 | 4.0 | 7.0 | 0.00 | 0.00 | 0.00 | 57 | 1003.6 |
| 20260505011004 | 67 | 226 | 5.0 | 9.0 | 0.00 | 0.00 | 0.00 | 57 | 1003.5 |
| 20260505010503 | 67 | 226 | 4.0 | 9.0 | 0.00 | 0.00 | 0.00 | 57 | 1003.4 |
| 20260505010004 | 67 | 226 | 4.0 | 15.0 | 0.00 | 0.00 | 0.00 | 56 | 1003.4 |
| 20260505005504 | 67 | 220 | 5.0 | 15.0 | 0.00 | 0.00 | 0.00 | 56 | 1003.3 |
| 20260505004005 | 68 | 222 | 4.0 | 10.0 | 0.00 | 0.00 | 0.00 | 56 | 1003.3 |
| 20260505003504 | 68 | 221 | 3.0 | 6.0 | 0.00 | 0.00 | 0.00 | 57 | 1003.1 |
| 20260505003005 | 68 | 222 | 3.0 | 6.0 | 0.00 | 0.00 | 0.00 | 56 | 1003.1 |
| 20260505002504 | 68 | 216 | 3.0 | 6.0 | 0.00 | 0.00 | 0.00 | 57 | 1002.9 |
| 20260505002005 | 68 | 208 | 3.0 | 7.0 | 0.00 | 0.00 | 0.00 | 56 | 1002.8 |
| 20260505001504 | 68 | 212 | 3.0 | 8.0 | 0.00 | 0.00 | 0.00 | 56 | 1002.8 |
| 20260505001005 | 69 | 210 | 3.0 | 9.0 | 0.00 | 0.00 | 0.00 | 55 | 1002.6 |
| 20260505000503 | 69 | 205 | 3.0 | 9.0 | 0.00 | 0.00 | 0.00 | 55 | 1002.4 |
| 20260505000004 | 69 | 209 | 2.0 | 6.0 | 0.00 | 0.00 | 0.00 | 55 | 1002.4 |
| 20260504235503 | 69 | 216 | 3.0 | 7.0 | 0.00 | 0.00 | 0.00 | 55 | 1002.4 |
| 20260504235004 | 70 | 227 | 4.0 | 12.0 | 0.00 | 0.00 | 0.00 | 54 | 1002.4 |
| 20260504234503 | 70 | 226 | 5.0 | 12.0 | 0.00 | 0.00 | 0.00 | 54 | 1002.4 |
| 20260504234005 | 70 | 230 | 5.0 | 12.0 | 0.00 | 0.00 | 0.00 | 54 | 1002.4 |
| 20260504233504 | 70 | 228 | 5.0 | 12.0 | 0.00 | 0.00 | 0.00 | 54 | 1002.4 |
| 20260504233005 | 70 | 219 | 5.0 | 18.0 | 0.00 | 0.00 | 0.00 | 53 | 1002.3 |
| 20260504232504 | 70 | 226 | 6.0 | 18.0 | 0.00 | 0.00 | 0.00 | 52 | 1002.3 |
| 20260504232005 | 70 | 229 | 6.0 | 15.0 | 0.00 | 0.00 | 0.00 | 52 | 1002.4 |
| 20260504231504 | 70 | 227 | 5.0 | 15.0 | 0.00 | 0.00 | 0.00 | 52 | 1002.3 |
| 20260504231004 | 70 | 227 | 5.0 | 14.0 | 0.00 | 0.00 | 0.00 | 52 | 1002.4 |
| 20260504230504 | 70 | 232 | 6.0 | 19.0 | 0.00 | 0.00 | 0.00 | 52 | 1002.4 |
| 20260504230104 | 70 | 226 | 7.0 | 19.0 | 0.00 | 0.00 | 0.00 | 52 | 1002.5 |
| 20260504225504 | 70 | 217 | 6.0 | 17.0 | 0.00 | 0.00 | 0.00 | 53 | 1002.6 |
| 20260504225004 | 70 | 224 | 6.0 | 16.0 | 0.00 | 0.00 | 0.00 | 54 | 1002.6 |
| 20260504224504 | 70 | 225 | 5.0 | 16.0 | 0.00 | 0.00 | 0.00 | 55 | 1002.6 |
| 20260504224004 | 70 | 223 | 5.0 | 11.0 | 0.00 | 0.00 | 0.00 | 57 | 1002.7 |
| 20260504223504 | 70 | 218 | 4.0 | 12.0 | 0.00 | 0.00 | 0.00 | 57 | 1002.7 |
| 20260504223005 | 70 | 207 | 4.0 | 12.0 | 0.00 | 0.00 | 0.00 | 58 | 1002.8 |
| 20260504222504 | 71 | 212 | 5.0 | 10.0 | 0.00 | 0.00 | 0.00 | 59 | 1002.9 |
| 20260504222004 | 71 | 225 | 5.0 | 10.0 | 0.00 | 0.00 | 0.00 | 54 | 1002.9 |
| 20260504221503 | 71 | 223 | 5.0 | 9.0 | 0.00 | 0.00 | 0.00 | 53 | 1002.9 |
| 20260504221004 | 71 | 223 | 5.0 | 13.0 | 0.00 | 0.00 | 0.00 | 53 | 1002.9 |
| 20260504220504 | 71 | 227 | 5.0 | 13.0 | 0.00 | 0.00 | 0.00 | 52 | 1002.9 |
| 20260504220005 | 71 | 227 | 6.0 | 13.0 | 0.00 | 0.00 | 0.00 | 52 | 1002.9 |
| 20260504215504 | 71 | 226 | 5.0 | 13.0 | 0.00 | 0.00 | 0.00 | 52 | 1003.1 |
| 20260504215004 | 71 | 222 | 5.0 | 11.0 | 0.00 | 0.00 | 0.00 | 53 | 1003.2 |
| 20260504214504 | 72 | 224 | 5.0 | 11.0 | 0.00 | 0.00 | 0.00 | 52 | 1003.0 |
| 20260504214005 | 72 | 227 | 6.0 | 15.0 | 0.00 | 0.00 | 0.00 | 52 | 1003.1 |
| 20260504213504 | 72 | 225 | 6.0 | 15.0 | 0.00 | 0.00 | 0.00 | 51 | 1003.0 |
| 20260504213004 | 72 | 218 | 5.0 | 16.0 | 0.00 | 0.00 | 0.00 | 51 | 1003.0 |
| 20260504212504 | 72 | 210 | 5.0 | 16.0 | 0.00 | 0.00 | 0.00 | 51 | 1003.1 |
| 20260504212004 | 72 | 206 | 5.0 | 13.0 | 0.00 | 0.00 | 0.00 | 51 | 1003.1 |
| 20260504211004 | 72 | 225 | 5.0 | 15.0 | 0.00 | 0.00 | 0.00 | 52 | 1003.2 |
| 20260504210504 | 72 | 238 | 5.0 | 15.0 | 0.00 | 0.00 | 0.00 | 51 | 1003.2 |
| 20260504205504 | 72 | 223 | 5.0 | 12.0 | 0.00 | 0.00 | 0.00 | 51 | 1003.3 |
| 20260504205004 | 72 | 216 | 5.0 | 12.0 | 0.00 | 0.00 | 0.00 | 50 | 1003.4 |
| 20260504204504 | 72 | 224 | 5.0 | 14.0 | 0.00 | 0.00 | 0.00 | 50 | 1003.5 |
| 20260504203504 | 72 | 245 | 5.0 | 13.0 | 0.00 | 0.00 | 0.00 | 49 | 1003.5 |
| 20260504203004 | 72 | 225 | 5.0 | 13.0 | 0.00 | 0.00 | 0.00 | 51 | 1003.5 |
| 20260504202504 | 72 | 214 | 6.0 | 13.0 | 0.00 | 0.00 | 0.00 | 49 | 1003.4 |
| 20260504202004 | 72 | 221 | 7.0 | 16.0 | 0.00 | 0.00 | 0.00 | 48 | 1003.4 |
| 20260504201504 | 72 | 230 | 6.0 | 16.0 | 0.00 | 0.00 | 0.00 | 48 | 1003.6 |
| 20260504201004 | 72 | 234 | 4.0 | 12.0 | 0.00 | 0.00 | 0.00 | 51 | 1003.6 |
| 20260504200005 | 72 | 228 | 5.0 | 13.0 | 0.00 | 0.00 | 0.00 | 50 | 1003.7 |
| 20260504195503 | 72 | 223 | 6.0 | 13.0 | 0.00 | 0.00 | 0.00 | 49 | 1003.7 |
| 20260504195004 | 72 | 230 | 6.0 | 14.0 | 0.00 | 0.00 | 0.00 | 49 | 1003.8 |
| 20260504194004 | 72 | 227 | 5.0 | 15.0 | 0.00 | 0.00 | 0.00 | 49 | 1004.0 |
| 20260504193004 | 72 | 211 | 6.0 | 14.0 | 0.00 | 0.00 | 0.00 | 49 | 1004.2 |
| 20260504192504 | 72 | 206 | 5.0 | 14.0 | 0.00 | 0.00 | 0.00 | 49 | 1004.3 |
| 20260504192005 | 73 | 204 | 5.0 | 17.0 | 0.00 | 0.00 | 0.00 | 47 | 1004.4 |
| 20260504191004 | 73 | 204 | 4.0 | 11.0 | 0.00 | 0.00 | 0.00 | 48 | 1004.4 |
| 20260504190005 | 73 | 197 | 4.0 | 10.0 | 0.00 | 0.00 | 0.00 | 47 | 1004.6 |
| 20260504185504 | 74 | 220 | 5.0 | 12.0 | 0.00 | 0.00 | 0.00 | 47 | 1004.6 |
| 20260504185004 | 74 | 230 | 6.0 | 12.0 | 0.00 | 0.00 | 0.00 | 47 | 1004.7 |
| 20260504184504 | 73 | 221 | 5.0 | 11.0 | 0.00 | 0.00 | 0.00 | 46 | 1004.7 |
| 20260504184004 | 73 | 210 | 5.0 | 13.0 | 0.00 | 0.00 | 0.00 | 49 | 1004.8 |
| 20260504183504 | 73 | 203 | 5.0 | 13.0 | 0.00 | 0.00 | 0.00 | 48 | 1004.9 |
| 20260504183005 | 73 | 192 | 4.0 | 12.0 | 0.00 | 0.00 | 0.00 | 47 | 1005.0 |
| 20260504182503 | 74 | 187 | 5.0 | 12.0 | 0.00 | 0.00 | 0.00 | 45 | 1005.0 |
| 20260504182005 | 74 | 209 | 5.0 | 12.0 | 0.00 | 0.00 | 0.00 | 45 | 1004.9 |
| 20260504181503 | 74 | 213 | 5.0 | 12.0 | 0.00 | 0.00 | 0.00 | 47 | 1005.0 |
| 20260504181004 | 74 | 214 | 5.0 | 12.0 | 0.00 | 0.00 | 0.00 | 44 | 1005.0 |
| 20260504180504 | 74 | 217 | 5.0 | 11.0 | 0.00 | 0.00 | 0.00 | 46 | 1005.2 |
| 20260504180004 | 74 | 208 | 5.0 | 11.0 | 0.00 | 0.00 | 0.00 | 44 | 1005.1 |
| 20260504175503 | 74 | 210 | 3.0 | 12.0 | 0.00 | 0.00 | 0.00 | 44 | 1005.2 |
| 20260504175004 | 74 | 210 | 4.0 | 12.0 | 0.00 | 0.00 | 0.00 | 46 | 1005.3 |
| 20260504174503 | 73 | 215 | 5.0 | 14.0 | 0.00 | 0.00 | 0.00 | 44 | 1005.4 |
| 20260504174005 | 73 | 212 | 6.0 | 14.0 | 0.00 | 0.00 | 0.00 | 45 | 1005.4 |
| 20260504173503 | 74 | 204 | 4.0 | 12.0 | 0.00 | 0.00 | 0.00 | 45 | 1005.5 |
| 20260504173005 | 74 | 213 | 4.0 | 9.0 | 0.00 | 0.00 | 0.00 | 45 | 1005.4 |
| 20260504172504 | 73 | 204 | 4.0 | 11.0 | 0.00 | 0.00 | 0.00 | 46 | 1005.6 |
| 20260504172004 | 73 | 206 | 5.0 | 13.0 | 0.00 | 0.00 | 0.00 | 46 | 1005.4 |
| 20260504171504 | 73 | 214 | 6.0 | 13.0 | 0.00 | 0.00 | 0.00 | 45 | 1005.7 |
| 20260504171005 | 73 | 221 | 5.0 | 11.0 | 0.00 | 0.00 | 0.00 | 45 | 1005.7 |
| 20260504170504 | 72 | 209 | 4.0 | 9.0 | 0.00 | 0.00 | 0.00 | 46 | 1005.7 |
| 20260504151004 | 64 | 222 | 4.0 | 10.0 | 0.00 | 0.00 | 0.00 | 54 | 1006.8 |
| 20260504150503 | 63 | 221 | 4.0 | 12.0 | 0.00 | 0.00 | 0.00 | 54 | 1006.8 |
| 20260504141004 | 58 | 242 | 3.0 | 9.0 | 0.00 | 0.00 | 0.00 | 60 | 1007.0 |
| 20260504130504 | 55 | 229 | 3.0 | 10.0 | 0.00 | 0.00 | 0.00 | 61 | 1007.5 |
| 20260504110504 | 49 | 204 | 1.0 | 6.0 | 0.00 | 0.00 | 0.00 | 68 | 1007.1 |
| 20260504081004 | 50 | 202 | 3.0 | 5.0 | 0.00 | 0.00 | 0.00 | 62 | 1007.9 |
| 20260504080504 | 50 | 212 | 3.0 | 6.0 | 0.00 | 0.00 | 0.00 | 62 | 1007.9 |